Flag for U.S.A. Weather past 2 weeks in Jacksonville, Florida, U.S.A.

69 °F

Broken clouds.

Feels Like: 69 °F
Forecast: 59 / 78 °F
Wind: 5 mph from North

Location: Jacksonville Naval Air Station

Current Time: Nov 30, 2015 at 10:16:39 AM

Latest Report: Nov 30, 2015 at 8:53 AM

Visibility: 10 mi

Pressure: 30.13 "Hg

Humidity: 68%

Dew point: 58 °F

Location of JacksonvilleLocation

Historic Weather in Jacksonville — Graph


Jacksonville temperature yesterday

Maximum temperature yesterday: 78 °F (at 2:53 PM)
Minimum temperature yesterday: 63 °F (at 3:53 AM)
Average temperature yesterday: 69 °F

Past Weeks' High & Low Weather Summary

High82 °F (Nov 17, 2:53 PM)94% (Nov 19, 4:02 AM)30.49 "Hg (Nov 19, 4:02 AM)
Low44 °F (Nov 23, 5:53 AM)43% (Nov 15, 2:53 PM)29.83 "Hg (Nov 22, 2:53 AM)
Average69 °F73%30.16 "Hg
* Reported Nov 15 8:53 AM — Nov 30 8:53 AM, Jacksonville, Weather by CustomWeather, © 2015

Note: Actual official high and low records may vary slightly from our data, if they occured in-between our weather recording intervals... More about our weather records


Jacksonville weather history for previous 24 hours

Time TempWeatherWind HumidityBarometerVisibility
8:53 AM
Mon, Nov 30
69 °FBroken clouds.5 mph68%30.13 "Hg10 mi
7:53 AM67 °FPartly sunny.3 mph76%30.11 "Hg10 mi
6:53 AM63 °FPassing clouds.No wind87%30.10 "Hg10 mi
5:53 AM64 °FPassing clouds.No wind84%30.09 "Hg10 mi
4:53 AM64 °FPassing clouds.No wind84%30.07 "Hg10 mi
3:53 AM65 °FPassing clouds.6 mph85%30.08 "Hg10 mi
2:53 AM65 °FClear.No wind81%30.08 "Hg10 mi
1:53 AM67 °FClear.5 mph85%30.09 "Hg10 mi
12:53 AM65 °FMostly cloudy.No wind85%30.10 "Hg10 mi
11:53 PM
Sun, Nov 29
65 °FClear.No wind85%30.10 "Hg10 mi
10:53 PM67 °FPassing clouds.No wind81%30.11 "Hg10 mi
9:53 PM67 °FPassing clouds.No wind85%30.12 "Hg9 mi
8:53 PM67 °FPassing clouds.No wind81%30.12 "Hg10 mi
7:53 PM68 °FPassing clouds.5 mph78%30.11 "Hg10 mi
6:53 PM69 °FPassing clouds.5 mph73%30.11 "Hg10 mi
5:53 PM71 °FPassing clouds.6 mph59%30.09 "Hg10 mi
4:53 PM74 °FScattered clouds.6 mph52%30.09 "Hg10 mi
3:53 PM76 °FScattered clouds.8 mph52%30.08 "Hg10 mi
2:53 PM78 °FPartly sunny.8 mph45%30.09 "Hg10 mi
1:53 PM77 °FPartly sunny.9 mph44%30.10 "Hg10 mi
12:53 PM77 °FPassing clouds.9 mph47%30.12 "Hg10 mi
11:53 AM76 °FPassing clouds.8 mph50%30.16 "Hg10 mi
10:53 AM75 °FPassing clouds.8 mph52%30.18 "Hg10 mi
Weather by CustomWeather, © 2015

See weather overviewHow to use our weather pages